Year,Month,Day,Hour,Minute,Value (Times are PST for windgust in km/hr)
2010,04,02,00,00,9.60
2010,04,02,00,01,16.10
2010,04,02,00,02,11.30
2010,04,02,00,03,4.80
2010,04,02,00,04,3.20
2010,04,02,00,05,11.30
2010,04,02,00,06,11.30
2010,04,02,00,07,9.60
2010,04,02,00,08,8.10
2010,04,02,00,09,8.10
2010,04,02,00,10,9.60
2010,04,02,00,11,9.60
2010,04,02,00,12,14.50
2010,04,02,00,13,12.90
2010,04,02,00,14,11.30
2010,04,02,00,15,14.50
2010,04,02,00,16,9.60
2010,04,02,00,17,14.50
2010,04,02,00,18,6.40
2010,04,02,00,19,22.50
2010,04,02,00,20,19.30
2010,04,02,00,21,8.10
2010,04,02,00,22,3.20
2010,04,02,00,23,11.30
2010,04,02,00,24,6.40
2010,04,02,00,25,16.10
2010,04,02,00,26,16.10
2010,04,02,00,27,11.30
2010,04,02,00,28,11.30
2010,04,02,00,29,20.90
2010,04,02,00,30,20.90
2010,04,02,00,31,14.50
2010,04,02,00,32,17.70
2010,04,02,00,33,6.40
2010,04,02,00,34,14.50
2010,04,02,00,35,9.60
2010,04,02,00,36,16.10
2010,04,02,00,37,8.10
2010,04,02,00,38,9.60
2010,04,02,00,39,8.10
2010,04,02,00,40,17.70
2010,04,02,00,41,9.60
2010,04,02,00,42,9.60
2010,04,02,00,43,12.90
2010,04,02,00,44,8.10
2010,04,02,00,45,11.30
2010,04,02,00,46,12.90
2010,04,02,00,47,9.60
2010,04,02,00,48,17.70
2010,04,02,00,49,19.30
2010,04,02,00,50,16.10
2010,04,02,00,51,16.10
2010,04,02,00,52,8.10
2010,04,02,00,53,11.30
2010,04,02,00,54,12.90
2010,04,02,00,55,20.90
2010,04,02,00,56,16.10
2010,04,02,00,57,17.70
2010,04,02,00,58,19.30
2010,04,02,00,59,20.90
2010,04,02,01,00,12.90
2010,04,02,01,01,16.10
2010,04,02,01,02,16.10
2010,04,02,01,03,9.60
2010,04,02,01,04,11.30
2010,04,02,01,05,17.70
2010,04,02,01,06,11.30
2010,04,02,01,07,11.30
2010,04,02,01,08,11.30
2010,04,02,01,09,9.60
2010,04,02,01,10,17.70
2010,04,02,01,11,16.10
2010,04,02,01,12,14.50
2010,04,02,01,13,11.30
2010,04,02,01,14,4.80
2010,04,02,01,15,8.10
2010,04,02,01,16,16.10
2010,04,02,01,17,9.60
2010,04,02,01,18,11.30
2010,04,02,01,19,9.60
2010,04,02,01,20,11.30
2010,04,02,01,21,14.50
2010,04,02,01,22,6.40
2010,04,02,01,23,14.50
2010,04,02,01,24,19.30
2010,04,02,01,25,8.10
2010,04,02,01,26,11.30
2010,04,02,01,27,11.30
2010,04,02,01,28,16.10
2010,04,02,01,29,6.40
2010,04,02,01,30,9.60
2010,04,02,01,31,8.10
2010,04,02,01,32,16.10
2010,04,02,01,33,6.40
2010,04,02,01,34,9.60
2010,04,02,01,35,11.30
2010,04,02,01,36,9.60
2010,04,02,01,37,11.30
2010,04,02,01,38,11.30
2010,04,02,01,39,16.10
2010,04,02,01,40,16.10
2010,04,02,01,41,8.10
2010,04,02,01,42,6.40
2010,04,02,01,43,9.60
2010,04,02,01,44,8.10
2010,04,02,01,45,9.60
2010,04,02,01,46,8.10
2010,04,02,01,47,17.70
2010,04,02,01,48,11.30
2010,04,02,01,49,11.30
2010,04,02,01,50,19.30
2010,04,02,01,51,14.50
2010,04,02,01,52,11.30
2010,04,02,01,53,9.60
2010,04,02,01,54,11.30
2010,04,02,01,55,9.60
2010,04,02,01,56,4.80
2010,04,02,01,57,8.10
2010,04,02,01,58,6.40
2010,04,02,01,59,8.10
2010,04,02,02,00,8.10
2010,04,02,02,01,6.40
2010,04,02,02,02,8.10
2010,04,02,02,03,19.30
2010,04,02,02,04,11.30
2010,04,02,02,05,9.60
2010,04,02,02,06,8.10
2010,04,02,02,07,4.80
2010,04,02,02,08,6.40
2010,04,02,02,09,3.20
2010,04,02,02,10,8.10
2010,04,02,02,11,9.60
2010,04,02,02,12,14.50
2010,04,02,02,13,11.30
2010,04,02,02,14,11.30
2010,04,02,02,15,9.60
2010,04,02,02,16,17.70
2010,04,02,02,17,14.50
2010,04,02,02,18,11.30
2010,04,02,02,19,11.30
2010,04,02,02,20,12.90
2010,04,02,02,21,12.90
2010,04,02,02,22,8.10
2010,04,02,02,23,4.80
2010,04,02,02,24,4.80
2010,04,02,02,25,8.10
2010,04,02,02,26,11.30
2010,04,02,02,27,8.10
2010,04,02,02,28,14.50
2010,04,02,02,29,8.10
2010,04,02,02,30,14.50
2010,04,02,02,31,4.80
2010,04,02,02,32,11.30
2010,04,02,02,33,11.30
2010,04,02,02,34,16.10
2010,04,02,02,35,9.60
2010,04,02,02,36,11.30
2010,04,02,02,37,8.10
2010,04,02,02,38,16.10
2010,04,02,02,39,11.30
2010,04,02,02,40,16.10
2010,04,02,02,41,11.30
2010,04,02,02,42,11.30
2010,04,02,02,43,9.60
2010,04,02,02,44,9.60
2010,04,02,02,45,14.50
2010,04,02,02,46,11.30
2010,04,02,02,47,11.30
2010,04,02,02,48,14.50
2010,04,02,02,49,11.30
2010,04,02,02,50,16.10
2010,04,02,02,51,14.50
2010,04,02,02,52,14.50
2010,04,02,02,53,8.10
2010,04,02,02,54,11.30
2010,04,02,02,55,16.10
2010,04,02,02,56,22.50
2010,04,02,02,57,9.60
2010,04,02,02,58,9.60
2010,04,02,02,59,11.30
2010,04,02,03,00,11.30
2010,04,02,03,01,6.40
2010,04,02,03,02,12.90
2010,04,02,03,03,8.10
2010,04,02,03,04,20.90
2010,04,02,03,05,8.10
2010,04,02,03,06,9.60
2010,04,02,03,07,8.10
2010,04,02,03,08,11.30
2010,04,02,03,09,6.40
2010,04,02,03,10,16.10
2010,04,02,03,11,8.10
2010,04,02,03,12,6.40
2010,04,02,03,13,6.40
2010,04,02,03,14,6.40
2010,04,02,03,15,8.10
2010,04,02,03,16,8.10
2010,04,02,03,17,9.60
2010,04,02,03,18,8.10
2010,04,02,03,19,6.40
2010,04,02,03,20,6.40
2010,04,02,03,21,8.10
2010,04,02,03,22,11.30
2010,04,02,03,23,11.30
2010,04,02,03,24,11.30
2010,04,02,03,25,9.60
2010,04,02,03,26,11.30
2010,04,02,03,27,11.30
2010,04,02,03,28,14.50
2010,04,02,03,29,19.30
2010,04,02,03,30,16.10
2010,04,02,03,31,14.50
2010,04,02,03,32,19.30
2010,04,02,03,33,19.30
2010,04,02,03,34,9.60
2010,04,02,03,35,14.50
2010,04,02,03,36,6.40
2010,04,02,03,37,11.30
2010,04,02,03,38,9.60
2010,04,02,03,39,8.10
2010,04,02,03,40,6.40
2010,04,02,03,41,19.30
2010,04,02,03,42,6.40
2010,04,02,03,43,6.40
2010,04,02,03,44,9.60
2010,04,02,03,45,19.30
2010,04,02,03,46,22.50
2010,04,02,03,47,14.50
2010,04,02,03,48,8.10
2010,04,02,03,49,14.50
2010,04,02,03,50,9.60
2010,04,02,03,51,11.30
2010,04,02,03,52,9.60
2010,04,02,03,53,14.50
2010,04,02,03,54,14.50
2010,04,02,03,55,16.10
2010,04,02,03,56,19.30
2010,04,02,03,57,11.30
2010,04,02,03,58,14.50
2010,04,02,03,59,8.10
2010,04,02,04,00,8.10
2010,04,02,04,01,14.50
2010,04,02,04,02,17.70
2010,04,02,04,03,22.50
2010,04,02,04,04,22.50
2010,04,02,04,05,19.30
2010,04,02,04,06,6.40
2010,04,02,04,07,11.30
2010,04,02,04,08,25.70
2010,04,02,04,09,4.80
2010,04,02,04,10,14.50
2010,04,02,04,11,6.40
2010,04,02,04,12,9.60
2010,04,02,04,13,16.10
2010,04,02,04,14,8.10
2010,04,02,04,15,11.30
2010,04,02,04,16,14.50
2010,04,02,04,17,14.50
2010,04,02,04,18,16.10
2010,04,02,04,19,16.10
2010,04,02,04,20,9.60
2010,04,02,04,21,16.10
2010,04,02,04,22,16.10
2010,04,02,04,23,11.30
2010,04,02,04,24,16.10
2010,04,02,04,25,16.10
2010,04,02,04,26,17.70
2010,04,02,04,27,17.70
2010,04,02,04,28,20.90
2010,04,02,04,29,20.90
2010,04,02,04,30,16.10
2010,04,02,04,31,19.30
2010,04,02,04,32,16.10
2010,04,02,04,33,16.10
2010,04,02,04,34,20.90
2010,04,02,04,35,14.50
2010,04,02,04,36,14.50
2010,04,02,04,37,8.10
2010,04,02,04,38,6.40
2010,04,02,04,39,8.10
2010,04,02,04,40,9.60
2010,04,02,04,41,14.50
2010,04,02,04,42,11.30
2010,04,02,04,43,17.70
2010,04,02,04,44,16.10
2010,04,02,04,45,11.30
2010,04,02,04,46,17.70
2010,04,02,04,47,11.30
2010,04,02,04,48,19.30
2010,04,02,04,49,25.70
2010,04,02,04,50,11.30
2010,04,02,04,51,16.10
2010,04,02,04,52,11.30
2010,04,02,04,53,24.20
2010,04,02,04,54,9.60
2010,04,02,04,55,16.10
2010,04,02,04,56,9.60
2010,04,02,04,57,11.30
2010,04,02,04,58,6.40
2010,04,02,04,59,17.70
2010,04,02,05,00,11.30
2010,04,02,05,01,11.30
2010,04,02,05,02,11.30
2010,04,02,05,03,14.50
2010,04,02,05,04,16.10
2010,04,02,05,05,11.30
2010,04,02,05,06,16.10
2010,04,02,05,07,14.50
2010,04,02,05,08,8.10
2010,04,02,05,09,9.60
2010,04,02,05,10,11.30
2010,04,02,05,11,14.50
2010,04,02,05,12,11.30
2010,04,02,05,13,11.30
2010,04,02,05,14,20.90
2010,04,02,05,15,17.70
2010,04,02,05,16,9.60
2010,04,02,05,17,16.10
2010,04,02,05,18,16.10
2010,04,02,05,19,20.90
2010,04,02,05,20,8.10
2010,04,02,05,21,8.10
2010,04,02,05,22,11.30
2010,04,02,05,23,17.70
2010,04,02,05,24,20.90
2010,04,02,05,25,14.50
2010,04,02,05,26,8.10
2010,04,02,05,27,11.30
2010,04,02,05,28,8.10
2010,04,02,05,29,11.30
2010,04,02,05,30,17.70
2010,04,02,05,31,8.10
2010,04,02,05,32,19.30
2010,04,02,05,33,6.40
2010,04,02,05,34,11.30
2010,04,02,05,35,11.30
2010,04,02,05,36,11.30
2010,04,02,05,37,11.30
2010,04,02,05,38,14.50
2010,04,02,05,39,16.10
2010,04,02,05,40,14.50
2010,04,02,05,41,8.10
2010,04,02,05,42,16.10
2010,04,02,05,43,9.60
2010,04,02,05,44,8.10
2010,04,02,05,45,6.40
2010,04,02,05,46,12.90
2010,04,02,05,47,9.60
2010,04,02,05,48,6.40
2010,04,02,05,49,9.60
2010,04,02,05,50,12.90
2010,04,02,05,51,9.60
2010,04,02,05,52,11.30
2010,04,02,05,53,16.10
2010,04,02,05,54,6.40
2010,04,02,05,55,4.80
2010,04,02,05,56,14.50
2010,04,02,05,57,9.60
2010,04,02,05,58,8.10
2010,04,02,05,59,9.60
2010,04,02,06,00,16.10
2010,04,02,06,01,14.50
2010,04,02,06,02,12.90
2010,04,02,06,03,16.10
2010,04,02,06,04,11.30
2010,04,02,06,05,16.10
2010,04,02,06,06,17.70
2010,04,02,06,07,16.10
2010,04,02,06,08,8.10
2010,04,02,06,09,9.60
2010,04,02,06,10,8.10
2010,04,02,06,11,9.60
2010,04,02,06,12,6.40
2010,04,02,06,13,8.10
2010,04,02,06,14,9.60
2010,04,02,06,15,8.10
2010,04,02,06,16,9.60
2010,04,02,06,17,3.20
2010,04,02,06,18,11.30
2010,04,02,06,19,17.70
2010,04,02,06,20,17.70
2010,04,02,06,21,24.20
2010,04,02,06,22,22.50
2010,04,02,06,23,17.70
2010,04,02,06,24,24.20
2010,04,02,06,25,19.30
2010,04,02,06,26,16.10
2010,04,02,06,27,22.50
2010,04,02,06,28,22.50
2010,04,02,06,29,12.90
2010,04,02,06,30,22.50
2010,04,02,06,31,25.70
2010,04,02,06,32,24.20
2010,04,02,06,33,11.30
2010,04,02,06,34,24.20
2010,04,02,06,35,17.70
2010,04,02,06,36,19.30
2010,04,02,06,37,27.40
2010,04,02,06,38,22.50
2010,04,02,06,39,14.50
2010,04,02,06,40,19.30
2010,04,02,06,41,27.40
2010,04,02,06,42,11.30
2010,04,02,06,43,17.70
2010,04,02,06,44,20.90
2010,04,02,06,45,16.10
2010,04,02,06,46,17.70
2010,04,02,06,47,30.60
2010,04,02,06,48,25.70
2010,04,02,06,49,24.20
2010,04,02,06,50,40.20
2010,04,02,06,51,17.70
2010,04,02,06,52,37.00
2010,04,02,06,53,30.60
2010,04,02,06,54,29.00
2010,04,02,06,55,29.00
2010,04,02,06,56,20.90
2010,04,02,06,57,30.60
2010,04,02,06,58,25.70
2010,04,02,06,59,19.30
2010,04,02,07,00,16.10
2010,04,02,07,01,25.70
2010,04,02,07,02,9.60
2010,04,02,07,03,19.30
2010,04,02,07,04,19.30
2010,04,02,07,05,20.90
2010,04,02,07,06,19.30
2010,04,02,07,07,22.50
2010,04,02,07,08,25.70
2010,04,02,07,09,19.30
2010,04,02,07,10,40.20
2010,04,02,07,11,24.20
2010,04,02,07,12,29.00
2010,04,02,07,13,27.40
2010,04,02,07,14,27.40
2010,04,02,07,15,17.70
2010,04,02,07,16,11.30
2010,04,02,07,17,22.50
2010,04,02,07,18,32.20
2010,04,02,07,19,35.40
2010,04,02,07,20,19.30
2010,04,02,07,21,20.90
2010,04,02,07,22,30.60
2010,04,02,07,23,25.70
2010,04,02,07,24,37.00
2010,04,02,07,25,33.80
2010,04,02,07,26,35.40
2010,04,02,07,27,19.30
2010,04,02,07,28,24.20
2010,04,02,07,29,20.90
2010,04,02,07,30,29.00
2010,04,02,07,31,27.40
2010,04,02,07,32,32.20
2010,04,02,07,33,37.00
2010,04,02,07,34,46.70
2010,04,02,07,35,37.00
2010,04,02,07,36,30.60
2010,04,02,07,37,35.40
2010,04,02,07,38,20.90
2010,04,02,07,39,17.70
2010,04,02,07,40,27.40
2010,04,02,07,41,48.30
2010,04,02,07,42,33.80
2010,04,02,07,43,25.70
2010,04,02,07,44,29.00
2010,04,02,07,45,24.20
2010,04,02,07,46,32.20
2010,04,02,07,47,48.30
2010,04,02,07,48,32.20
2010,04,02,07,49,24.20
2010,04,02,07,50,27.40
2010,04,02,07,51,32.20
2010,04,02,07,52,43.50
2010,04,02,07,53,25.70
2010,04,02,07,54,32.20
2010,04,02,07,55,33.80
2010,04,02,07,56,29.00
2010,04,02,07,57,16.10
2010,04,02,07,58,20.90
2010,04,02,07,59,22.50
2010,04,02,08,00,9.60
2010,04,02,08,01,19.30
2010,04,02,08,02,14.50
2010,04,02,08,03,20.90
2010,04,02,08,04,27.40
2010,04,02,08,05,19.30
2010,04,02,08,06,14.50
2010,04,02,08,07,33.80
2010,04,02,08,08,30.60
2010,04,02,08,09,27.40
2010,04,02,08,10,43.50
2010,04,02,08,11,35.40
2010,04,02,08,12,27.40
2010,04,02,08,13,32.20
2010,04,02,08,14,40.20
2010,04,02,08,15,24.20
2010,04,02,08,16,29.00
2010,04,02,08,17,48.30
2010,04,02,08,18,35.40
2010,04,02,08,19,40.20
2010,04,02,08,20,17.70
2010,04,02,08,21,24.20
2010,04,02,08,22,20.90
2010,04,02,08,23,17.70
2010,04,02,08,24,29.00
2010,04,02,08,25,33.80
2010,04,02,08,26,19.30
2010,04,02,08,27,38.60
2010,04,02,08,28,38.60
2010,04,02,08,29,24.20
2010,04,02,08,30,35.40
2010,04,02,08,31,32.20
2010,04,02,08,32,29.00
2010,04,02,08,33,29.00
2010,04,02,08,34,25.70
2010,04,02,08,35,32.20
2010,04,02,08,36,33.80
2010,04,02,08,37,45.10
2010,04,02,08,38,30.60
2010,04,02,08,39,45.10
2010,04,02,08,40,41.80
2010,04,02,08,41,30.60
2010,04,02,08,42,41.80
2010,04,02,08,54,30.60
2010,04,02,08,55,19.30
2010,04,02,08,56,33.80
2010,04,02,08,57,22.50
2010,04,02,08,58,32.20
2010,04,02,08,59,25.70
2010,04,02,09,00,29.00
2010,04,02,09,01,25.70
2010,04,02,09,02,19.30
2010,04,02,09,03,25.70
2010,04,02,09,04,33.80
2010,04,02,09,05,30.60
2010,04,02,09,06,22.50
2010,04,02,09,07,17.70
2010,04,02,09,08,25.70
2010,04,02,09,09,43.50
2010,04,02,09,10,19.30
2010,04,02,09,11,12.90
2010,04,02,09,12,19.30
2010,04,02,09,13,33.80
2010,04,02,09,14,27.40
2010,04,02,09,15,29.00
2010,04,02,09,16,30.60
2010,04,02,09,17,38.60
2010,04,02,09,18,19.30
2010,04,02,09,19,20.90
2010,04,02,09,20,27.40
2010,04,02,09,21,46.70
2010,04,02,09,22,29.00
2010,04,02,09,23,17.70
2010,04,02,09,24,30.60
2010,04,02,09,25,38.60
2010,04,02,09,26,22.50
2010,04,02,09,27,35.40
2010,04,02,09,28,29.00
2010,04,02,09,29,43.50
2010,04,02,09,30,38.60
2010,04,02,09,31,25.70
2010,04,02,09,32,27.40
2010,04,02,09,33,22.50
2010,04,02,09,34,17.70
2010,04,02,09,35,32.20
2010,04,02,09,36,25.70
2010,04,02,09,37,33.80
2010,04,02,09,38,30.60
2010,04,02,09,39,17.70
2010,04,02,09,40,16.10
2010,04,02,09,41,17.70
2010,04,02,09,42,17.70
2010,04,02,09,43,20.90
2010,04,02,09,44,17.70
2010,04,02,09,45,17.70
2010,04,02,09,46,29.00
2010,04,02,09,47,20.90
2010,04,02,09,48,20.90
2010,04,02,09,49,29.00
2010,04,02,09,50,17.70
2010,04,02,09,51,35.40
2010,04,02,09,52,35.40
2010,04,02,09,53,25.70
2010,04,02,09,54,22.50
2010,04,02,09,55,32.20
2010,04,02,09,56,30.60
2010,04,02,09,57,37.00
2010,04,02,09,58,46.70
2010,04,02,09,59,30.60
2010,04,02,10,00,33.80
2010,04,02,10,01,16.10
2010,04,02,10,02,33.80
2010,04,02,10,03,32.20
2010,04,02,10,04,32.20
2010,04,02,10,05,22.50
2010,04,02,10,06,17.70
2010,04,02,10,07,30.60
2010,04,02,10,08,25.70
2010,04,02,10,09,30.60
2010,04,02,10,10,35.40
2010,04,02,10,11,27.40
2010,04,02,10,12,25.70
2010,04,02,10,13,25.70
2010,04,02,10,14,19.30
2010,04,02,10,15,25.70
2010,04,02,10,16,25.70
2010,04,02,10,17,22.50
2010,04,02,10,18,20.90
2010,04,02,10,19,22.50
2010,04,02,10,20,30.60
2010,04,02,10,21,29.00
2010,04,02,10,22,25.70
2010,04,02,10,23,33.80
2010,04,02,10,24,22.50
2010,04,02,10,25,27.40
2010,04,02,10,26,33.80
2010,04,02,10,27,30.60
2010,04,02,10,28,19.30
2010,04,02,10,29,24.20
2010,04,02,10,30,30.60
2010,04,02,10,31,25.70
2010,04,02,10,32,17.70
2010,04,02,10,33,33.80
2010,04,02,10,34,35.40
2010,04,02,10,35,20.90
2010,04,02,10,36,32.20
2010,04,02,10,37,32.20
2010,04,02,10,38,27.40
2010,04,02,10,39,27.40
2010,04,02,10,40,32.20
2010,04,02,10,41,27.40
2010,04,02,10,42,29.00
2010,04,02,10,43,30.60
2010,04,02,10,44,19.30
2010,04,02,10,45,20.90
2010,04,02,10,46,32.20
2010,04,02,10,47,38.60
2010,04,02,10,48,32.20
2010,04,02,10,49,30.60
2010,04,02,10,50,33.80
2010,04,02,10,51,22.50
2010,04,02,10,52,24.20
2010,04,02,10,53,30.60
2010,04,02,10,54,24.20
2010,04,02,10,55,24.20
2010,04,02,10,56,22.50
2010,04,02,10,57,27.40
2010,04,02,10,58,32.20
2010,04,02,10,59,19.30
2010,04,02,11,00,25.70
2010,04,02,11,01,30.60
2010,04,02,11,02,19.30
2010,04,02,11,03,24.20
2010,04,02,11,04,14.50
2010,04,02,11,05,14.50
2010,04,02,11,06,27.40
2010,04,02,11,07,27.40
2010,04,02,11,08,22.50
2010,04,02,11,09,22.50
2010,04,02,11,10,22.50
2010,04,02,11,11,35.40
2010,04,02,11,12,24.20
2010,04,02,11,13,22.50
2010,04,02,11,14,20.90
2010,04,02,11,15,24.20
2010,04,02,11,16,24.20
2010,04,02,11,17,24.20
2010,04,02,11,18,22.50
2010,04,02,11,19,17.70
2010,04,02,11,20,16.10
2010,04,02,11,21,19.30
2010,04,02,11,22,19.30
2010,04,02,11,23,12.90
2010,04,02,11,24,17.70
2010,04,02,11,25,24.20
2010,04,02,11,26,14.50
2010,04,02,11,27,30.60
2010,04,02,11,28,22.50
2010,04,02,11,29,17.70
2010,04,02,11,30,9.60
2010,04,02,11,31,16.10
2010,04,02,11,32,9.60
2010,04,02,11,33,12.90
2010,04,02,11,34,16.10
2010,04,02,11,35,14.50
2010,04,02,11,36,19.30
2010,04,02,11,37,29.00
2010,04,02,11,38,20.90
2010,04,02,11,39,11.30
2010,04,02,11,40,29.00
2010,04,02,11,41,16.10
2010,04,02,11,42,24.20
2010,04,02,11,43,24.20
2010,04,02,11,44,27.40
2010,04,02,11,45,25.70
2010,04,02,11,46,45.10
2010,04,02,11,47,32.20
2010,04,02,11,48,19.30
2010,04,02,11,49,19.30
2010,04,02,11,50,9.60
2010,04,02,11,51,24.20
2010,04,02,11,52,24.20
2010,04,02,11,53,25.70
2010,04,02,11,54,17.70
2010,04,02,11,55,22.50
2010,04,02,11,56,20.90
2010,04,02,11,57,24.20
2010,04,02,11,58,16.10
2010,04,02,11,59,17.70
2010,04,02,12,00,24.20
2010,04,02,12,01,29.00
2010,04,02,12,02,16.10
2010,04,02,12,03,29.00
2010,04,02,12,04,19.30
2010,04,02,12,05,16.10
2010,04,02,12,06,35.40
2010,04,02,12,07,37.00
2010,04,02,12,08,32.20
2010,04,02,12,09,22.50
2010,04,02,12,10,24.20
2010,04,02,12,11,17.70
2010,04,02,12,12,27.40
2010,04,02,12,13,41.80
2010,04,02,12,14,32.20
2010,04,02,12,15,32.20
2010,04,02,12,16,35.40
2010,04,02,12,17,32.20
2010,04,02,12,18,22.50
2010,04,02,12,19,32.20
2010,04,02,12,20,27.40
2010,04,02,12,21,32.20
2010,04,02,12,22,22.50
2010,04,02,12,23,24.20
2010,04,02,12,24,29.00
2010,04,02,12,25,29.00
2010,04,02,12,26,19.30
2010,04,02,12,27,35.40
2010,04,02,12,28,24.20
2010,04,02,12,29,22.50
2010,04,02,12,30,27.40
2010,04,02,12,31,19.30
2010,04,02,12,32,37.00
2010,04,02,12,33,32.20
2010,04,02,12,34,32.20
2010,04,02,12,35,25.70
2010,04,02,12,36,19.30
2010,04,02,12,37,30.60
2010,04,02,12,38,27.40
2010,04,02,12,39,22.50
2010,04,02,12,40,27.40
2010,04,02,12,41,27.40
2010,04,02,12,42,38.60
2010,04,02,12,43,30.60
2010,04,02,12,44,24.20
2010,04,02,12,45,37.00
2010,04,02,12,46,25.70
2010,04,02,12,47,51.50
2010,04,02,12,48,37.00
2010,04,02,12,49,29.00
2010,04,02,12,50,40.20
2010,04,02,12,51,24.20
2010,04,02,12,52,33.80
2010,04,02,12,53,27.40
2010,04,02,12,54,24.20
2010,04,02,12,55,27.40
2010,04,02,12,56,24.20
2010,04,02,12,57,37.00
2010,04,02,12,58,32.20
2010,04,02,12,59,22.50
2010,04,02,13,00,24.20
2010,04,02,13,01,16.10
2010,04,02,13,02,20.90
2010,04,02,13,03,14.50
2010,04,02,13,04,14.50
2010,04,02,13,05,24.20
2010,04,02,13,06,30.60
2010,04,02,13,07,29.00
2010,04,02,13,08,24.20
2010,04,02,13,09,27.40
2010,04,02,13,10,19.30
2010,04,02,13,11,24.20
2010,04,02,13,12,19.30
2010,04,02,13,13,33.80
2010,04,02,13,14,32.20
2010,04,02,13,15,29.00
2010,04,02,13,16,22.50
2010,04,02,13,17,17.70
2010,04,02,13,18,30.60
2010,04,02,13,19,25.70
2010,04,02,13,20,35.40
2010,04,02,13,21,32.20
2010,04,02,13,22,32.20
2010,04,02,13,23,38.60
2010,04,02,13,24,32.20
2010,04,02,13,25,45.10
2010,04,02,13,26,37.00
2010,04,02,13,27,22.50
2010,04,02,13,28,29.00
2010,04,02,13,29,29.00
2010,04,02,13,30,19.30
2010,04,02,13,31,17.70
2010,04,02,13,32,32.20
2010,04,02,13,33,27.40
2010,04,02,13,34,33.80
2010,04,02,13,35,29.00
2010,04,02,13,36,22.50
2010,04,02,13,37,14.50
2010,04,02,13,38,9.60
2010,04,02,13,39,22.50
2010,04,02,13,40,19.30
2010,04,02,13,41,32.20
2010,04,02,13,42,33.80
2010,04,02,13,43,17.70
2010,04,02,13,44,32.20
2010,04,02,13,45,45.10
2010,04,02,13,46,35.40
2010,04,02,13,47,20.90
2010,04,02,13,48,25.70
2010,04,02,13,49,33.80
2010,04,02,13,50,24.20
2010,04,02,13,51,25.70
2010,04,02,13,52,37.00
2010,04,02,13,53,25.70
2010,04,02,13,54,43.50
2010,04,02,13,55,27.40
2010,04,02,13,56,24.20
2010,04,02,13,57,25.70
2010,04,02,13,58,24.20
2010,04,02,13,59,24.20
2010,04,02,14,00,25.70
2010,04,02,14,01,19.30
2010,04,02,14,02,24.20
2010,04,02,14,03,24.20
2010,04,02,14,04,16.10
2010,04,02,14,05,27.40
2010,04,02,14,06,30.60
2010,04,02,14,07,27.40
2010,04,02,14,08,16.10
2010,04,02,14,09,17.70
2010,04,02,14,10,19.30
2010,04,02,14,11,27.40
2010,04,02,14,12,27.40
2010,04,02,14,13,19.30
2010,04,02,14,14,45.10
2010,04,02,14,15,27.40
2010,04,02,14,16,25.70
2010,04,02,14,17,22.50
2010,04,02,14,18,25.70
2010,04,02,14,19,29.00
2010,04,02,14,20,27.40
2010,04,02,14,21,19.30
2010,04,02,14,22,17.70
2010,04,02,14,23,22.50
2010,04,02,14,24,30.60
2010,04,02,14,25,29.00
2010,04,02,14,26,24.20
2010,04,02,14,27,29.00
2010,04,02,14,28,17.70
2010,04,02,14,29,24.20
2010,04,02,14,30,14.50
2010,04,02,14,31,22.50
2010,04,02,14,32,9.60
2010,04,02,14,33,32.20
2010,04,02,14,34,29.00
2010,04,02,14,35,16.10
2010,04,02,14,36,19.30
2010,04,02,14,37,32.20
2010,04,02,14,38,24.20
2010,04,02,14,39,25.70
2010,04,02,14,40,30.60
2010,04,02,14,41,20.90
2010,04,02,14,42,24.20
2010,04,02,14,43,27.40
2010,04,02,14,44,40.20
2010,04,02,14,45,40.20
2010,04,02,14,46,35.40
2010,04,02,14,47,27.40
2010,04,02,14,48,32.20
2010,04,02,14,49,19.30
2010,04,02,14,50,27.40
2010,04,02,14,51,24.20
2010,04,02,14,52,32.20
2010,04,02,14,53,17.70
2010,04,02,14,54,25.70
2010,04,02,14,55,19.30
2010,04,02,14,56,22.50
2010,04,02,14,57,32.20
2010,04,02,14,58,33.80
2010,04,02,14,59,22.50
2010,04,02,15,00,32.20
2010,04,02,15,01,22.50
2010,04,02,15,02,32.20
2010,04,02,15,03,40.20
2010,04,02,15,04,25.70
2010,04,02,15,05,24.20
2010,04,02,15,06,30.60
2010,04,02,15,07,30.60
2010,04,02,15,08,41.80
2010,04,02,15,09,48.30
2010,04,02,15,10,29.00
2010,04,02,15,11,30.60
2010,04,02,15,12,29.00
2010,04,02,15,13,30.60
2010,04,02,15,14,27.40
2010,04,02,15,15,32.20
2010,04,02,15,16,24.20
2010,04,02,15,17,27.40
2010,04,02,15,18,35.40
2010,04,02,15,19,40.20
2010,04,02,15,20,24.20
2010,04,02,15,21,30.60
2010,04,02,15,22,32.20
2010,04,02,15,23,43.50
2010,04,02,15,24,25.70
2010,04,02,15,25,29.00
2010,04,02,15,26,25.70
2010,04,02,15,27,19.30
2010,04,02,15,28,22.50
2010,04,02,15,29,20.90
2010,04,02,15,30,32.20
2010,04,02,15,31,25.70
2010,04,02,15,32,22.50
2010,04,02,15,33,22.50
2010,04,02,15,34,25.70
2010,04,02,15,35,41.80
2010,04,02,15,36,33.80
2010,04,02,15,37,29.00
2010,04,02,15,38,32.20
2010,04,02,15,39,32.20
2010,04,02,15,40,22.50
2010,04,02,15,41,27.40
2010,04,02,15,42,27.40
2010,04,02,15,43,30.60
2010,04,02,15,44,25.70
2010,04,02,15,45,33.80
2010,04,02,15,46,27.40
2010,04,02,15,47,22.50
2010,04,02,15,48,20.90
2010,04,02,15,49,14.50
2010,04,02,15,50,49.90
2010,04,02,15,51,24.20
2010,04,02,15,52,25.70
2010,04,02,15,53,27.40
2010,04,02,15,54,30.60
2010,04,02,15,55,30.60
2010,04,02,15,56,30.60
2010,04,02,15,57,33.80
2010,04,02,15,58,32.20
2010,04,02,15,59,20.90
2010,04,02,16,00,29.00
2010,04,02,16,01,25.70
2010,04,02,16,02,24.20
2010,04,02,16,03,22.50
2010,04,02,16,04,27.40
2010,04,02,16,05,35.40
2010,04,02,16,06,25.70
2010,04,02,16,07,25.70
2010,04,02,16,08,17.70
2010,04,02,16,09,29.00
2010,04,02,16,10,35.40
2010,04,02,16,11,22.50
2010,04,02,16,12,37.00
2010,04,02,16,13,19.30
2010,04,02,16,14,32.20
2010,04,02,16,15,25.70
2010,04,02,16,16,38.60
2010,04,02,16,17,29.00
2010,04,02,16,18,32.20
2010,04,02,16,19,25.70
2010,04,02,16,20,19.30
2010,04,02,16,21,25.70
2010,04,02,16,22,22.50
2010,04,02,16,23,24.20
2010,04,02,16,24,16.10
2010,04,02,16,25,25.70
2010,04,02,16,26,17.70
2010,04,02,16,27,27.40
2010,04,02,16,28,12.90
2010,04,02,16,29,25.70
2010,04,02,16,30,30.60
2010,04,02,16,31,22.50
2010,04,02,16,32,20.90
2010,04,02,16,33,20.90
2010,04,02,16,34,24.20
2010,04,02,16,35,25.70
2010,04,02,16,36,25.70
2010,04,02,16,37,30.60
2010,04,02,16,38,24.20
2010,04,02,16,39,35.40
2010,04,02,16,40,17.70
2010,04,02,16,41,27.40
2010,04,02,16,42,30.60
2010,04,02,16,43,30.60
2010,04,02,16,44,19.30
2010,04,02,16,45,19.30
2010,04,02,16,46,29.00
2010,04,02,16,47,24.20
2010,04,02,16,48,22.50
2010,04,02,16,49,20.90
2010,04,02,16,50,20.90
2010,04,02,16,51,17.70
2010,04,02,16,52,25.70
2010,04,02,16,53,19.30
2010,04,02,16,54,32.20
2010,04,02,16,55,11.30
2010,04,02,16,56,14.50
2010,04,02,16,57,14.50
2010,04,02,16,58,29.00
2010,04,02,16,59,33.80
2010,04,02,17,00,30.60
2010,04,02,17,01,19.30
2010,04,02,17,02,29.00
2010,04,02,17,03,29.00
2010,04,02,17,04,16.10
2010,04,02,17,05,33.80
2010,04,02,17,06,12.90
2010,04,02,17,07,16.10
2010,04,02,17,08,35.40
2010,04,02,17,09,24.20
2010,04,02,17,10,33.80
2010,04,02,17,11,25.70
2010,04,02,17,12,16.10
2010,04,02,17,13,22.50
2010,04,02,17,14,27.40
2010,04,02,17,15,35.40
2010,04,02,17,16,20.90
2010,04,02,17,17,32.20
2010,04,02,17,18,25.70
2010,04,02,17,19,17.70
2010,04,02,17,20,27.40
2010,04,02,17,21,20.90
2010,04,02,17,22,29.00
2010,04,02,17,23,25.70
2010,04,02,17,24,20.90
2010,04,02,17,25,20.90
2010,04,02,17,26,9.60
2010,04,02,17,27,22.50
2010,04,02,17,28,24.20
2010,04,02,17,29,17.70
2010,04,02,17,30,17.70
2010,04,02,17,31,22.50
2010,04,02,17,32,24.20
2010,04,02,17,33,29.00
2010,04,02,17,34,16.10
2010,04,02,17,35,17.70
2010,04,02,17,36,25.70
2010,04,02,17,37,20.90